|
NORAD ID: 27141 Int'l Code: 2001-049CM
Perigee: 602.2 km
Apogee: 681.6 km
Inclination: 97.7 °
Period: 97.4 minutes
Semi major axis: 7012 km
Launch date: October 22, 2001
Source: India (IND)
Note: This is SATELLITE DEBRIS
Two Line Element Set (TLE):
1 27141U 01049CM 13142.17397917 .00000888 00000-0 12628-3 0 9305
2 27141 097.7418 108.8467 0056634 265.8839 215.9574 14.78273760614595
Source:
NASA's NSSDC Master Catalog entry for PSLV DEB
|